Location: Chiroubles
(46.1812°N, 4.6660°E)
Time: 19:20:55
(UTC+00:00)

IRIDIUM 106 - Pass Details

Date: 15 August 2020
Orbit: 776 x 779 km, 86.4° (Epoch: 24 September)

Event Time Altitude Azimuth Distance (km) Brightness Sun altitude
Rises 19:27:00 0° 181° (S) 3,248 7.3 -6.7°
Reaches altitude 10° 19:29:20 10° 182° (S) 2,325 6.5 -7.1°
Maximum altitude 19:34:33 89° 262° (W) 786 4.4 -7.9°
Drops below altitude 10° 19:39:49 10° 3° (N) 2,342 7.2 -8.6°
Sets 19:42:10 0° 4° (N) 3,274 8.0 -9.0°
